GSAT0217 (GALILEO 21)

Last updated on Wed Sep 09 2026 00:02:49 GMT+0000 (Coordinated Universal Time)

1 43057U 17079C 26250.06223323 .00000023 00000+0 00000+0 0 9992 2 43057 55.0537 219.2520 0004114 301.1902 58.7365 1.70473896 54382
UTC large
Height (km)
Speed (km/s)
/
Latitude / Longitude
Inclination (degrees)
Orbital Period (minutes)
Azimuth
Elevation
Range (km)
Doppler Factor

Next 0 passes for location: London (51.5072 / 0.1276)

No passes found over London.
GSAT0217 (GALILEO 21)